Regional Weather Roundup
Issued by NWS

Current Version | Previous Version | Text Only | Print | Product List | Glossary On
Versions: 1 2 3 4 5 6 7 8 9 10 11 12 13 14 15 16 17 18 19 20 21 22 23 24 25 26 27 28 29 30 31 32 33 34 35 36 37 38 39 40 41 42 43 44 45 46 47 48 49 50
000
ASUS42 KKEY 190510
RWRKEY

FLORIDA REGIONAL WEATHER ROUNDUP FOR THE FLORIDA KEYS
NATIONAL WEATHER SERVICE KEY WEST FLORIDA
100 AM EDT FRI SEP 19 2014

...SOUTH FLORIDA AND THE KEYS...

CITY           SKY/WX    TMP DP  RH WIND       PRES   REMARKS
FORT MYERS     PTCLDY    76  74  93 SE5       29.92F
SW REGIONAL AP PTCLDY    76  68  76 E3        29.93S
NAPLES         PTCLDY    80  76  87 CALM      29.92F
MIAMI          MOCLDY    79  74  84 SW5       29.94S
WEST KENDALL   PTCLDY    79  74  84 SW5       29.94S
HOMESTEAD      CLEAR     76  74  95 SW2       29.93F
MARATHON       MOCLDY    79  76  90 CALM      29.94S
BOCA CHICA NAS PTCLDY   N/A N/A N/A CALM      29.94F
KEY WEST INTL  PTCLDY    83  72  69 SW5       29.94F

...INTERNATIONAL WEATHER...

CITY           SKY/WX    TMP DP  RH WIND       PRES   REMARKS
NASSAU BAHAMAS PTCLDY    77  75  94 CALM      29.96S
CANCUN MEXICO  PTCLDY    79  75  89 SE6       29.93S
COZUMEL MEXICO PTCLDY    73  73 100 CALM      29.94R

ADJACENT COASTAL WATERS...

STATION/POSITION TIME  SKY/WX   TEMP    WIND        PRES    WAVE
                                AIR SEA DIR/SP/G            HT/PER
                 (UTC)          (F)     (DEG/KT/KT) (MB)    (FT/S)
PULASKI SHOAL LI 0500            83     290/  2/  3 1013.7F
SAND KEY         0500            83     240/  4/  5 1013.9F
SOMBRERO KEY     0500            83     240/  4/  5 1014.5F
LONG KEY         0500            83 86  220/  5/  6 1014.6F
MOLASSES REEF    0500            82 85  230/  3/  4 1013.9S
FOWEY ROCKS      0500            82 85  260/  9/ 10 1013.9F
Buoy 42080       NOT AVBL

$$



USA.gov is the U.S. government's official web portal to all federal, state and local government web resources and services.